Location: *
(45.4590°N, 16.3650°E)
Time: 22:21:30
(UTC+00:00)

Cosmos 2237 Rocket - Pass Details

Date: 17 January 2020
Orbit: 837 x 848 km, 71.0° (Epoch: 17 February)

Event Time Altitude Azimuth Distance (km) Brightness Sun altitude
Rises 16:58:38 0° 339° (NNW) 3,400 5.4 -13.6°
Reaches altitude 10° 17:01:18 10° 348° (NNW) 2,461 4.6 -14.1°
Maximum altitude 17:06:28 36° 54° (NE) 1,308 2.7 -15.0°
Enters shadow 17:10:20 16° 113° (ESE) 2,033 3.7 -15.6°
